QPF
0.01 0.00 0.00 0.00 0.02 0.03 0.01 0.01 0.01 0.01 0.01 0.01 0.00 0.00 0.00 0.01 0.01 0.01 0.01 0.01 0.00 0.01 0.01 0.02 0.04 0.05 0.05 0.04 0.03 0.02 0.01 0.01 0.01 0.01 0.02 0.02 0.02 0.02 0.02 0.02 0.02 0.02 0.03 0.03 0.02 0.01 0.01 0.01 0.01
0.02 0.01 0.00 0.00 0.01 0.02 0.02 0.01 0.00 0.00 0.01 0.01 0.00 0.00 0.00 0.00 0.00 0.01 0.01 0.01 0.00 0.01 0.02 0.03 0.04 0.05 0.05 0.04 0.03 0.02 0.02 0.02 0.02 0.02 0.02 0.02 0.02 0.02 0.02 0.02 0.02 0.02 0.04 0.04 0.03 0.02 0.01 0.01 0.02
0.03 0.03 0.01 0.01 0.01 0.00 0.01 0.01 0.00 0.00 0.00 0.01 0.01 0.00 0.00 0.00 0.00 0.01 0.01 0.01 0.01 0.01 0.02 0.02 0.04 0.05 0.05 0.04 0.02 0.02 0.02 0.02 0.02 0.01 0.01 0.01 0.02 0.02 0.02 0.02 0.02 0.02 0.02 0.02 0.02 0.03 0.03 0.02 0.02
0.02 0.03 0.02 0.02 0.01 0.00 0.00 0.01 0.01 0.01 0.01 0.01 0.01 0.01 0.00 0.00 0.01 0.01 0.01 0.01 0.00 0.01 0.01 0.01 0.02 0.03 0.03 0.03 0.02 0.03 0.03 0.03 0.02 0.02 0.02 0.02 0.02 0.01 0.01 0.01 0.01 0.02 0.02 0.02 0.03 0.03 0.03 0.03 0.02
0.02 0.02 0.02 0.02 0.01 0.01 0.00 0.01 0.01 0.02 0.01 0.01 0.01 0.01 0.01 0.00 0.00 0.00 0.01 0.00 0.00 0.01 0.01 0.01 0.02 0.02 0.03 0.02 0.02 0.02 0.02 0.02 0.02 0.02 0.03 0.03 0.03 0.02 0.01 0.01 0.01 0.01 0.02 0.02 0.02 0.03 0.02 0.02 0.01
0.02 0.01 0.01 0.01 0.01 0.01 0.01 0.00 0.01 0.02 0.02 0.01 0.01 0.01 0.01 0.01 0.01 0.01 0.01 0.01 0.00 0.01 0.01 0.01 0.02 0.02 0.03 0.04 0.02 0.02 0.03 0.02 0.02 0.03 0.03 0.03 0.03 0.03 0.02 0.01 0.01 0.01 0.02 0.02 0.02 0.02 0.02 0.02 0.02
0.01 0.01 0.01 0.01 0.01 0.01 0.01 0.01 0.01 0.01 0.02 0.02 0.02 0.02 0.01 0.01 0.01 0.01 0.01 0.01 0.01 0.01 0.01 0.02 0.02 0.02 0.02 0.03 0.02 0.02 0.02 0.02 0.02 0.04 0.03 0.02 0.02 0.02 0.02 0.02 0.01 0.01 0.01 0.02 0.01 0.01 0.02 0.02 0.01
0.01 0.01 0.01 0.01 0.01 0.01 0.01 0.01 0.01 0.01 0.02 0.02 0.03 0.02 0.02 0.01 0.02 0.02 0.01 0.01 0.01 0.02 0.03 0.03 0.03 0.04 0.03 0.02 0.03 0.02 0.02 0.02 0.02 0.04 0.03 0.02 0.02 0.02 0.02 0.03 0.02 0.01 0.01 0.01 0.01 0.01 0.01 0.02 0.01
0.01 0.01 0.01 0.01 0.01 0.01 0.01 0.01 0.01 0.01 0.01 0.02 0.03 0.03 0.02 0.02 0.03 0.02 0.02 0.02 0.02 0.02 0.03 0.04 0.05 0.05 0.04 0.03 0.03 0.03 0.02 0.02 0.03 0.04 0.04 0.03 0.01 0.01 0.02 0.02 0.03 0.03 0.02 0.01 0.01 0.01 0.01 0.01 0.02
0.01 0.01 0.01 0.01 0.01 0.02 0.01 0.01 0.01 0.01 0.01 0.02 0.03 0.03 0.03 0.03 0.03 0.03 0.03 0.02 0.02 0.03 0.03 0.03 0.04 0.04 0.04 0.03 0.03 0.03 0.03 0.02 0.03 0.02 0.02 0.02 0.02 0.02 0.02 0.03 0.03 0.03 0.03 0.02 0.01 0.01 0.01 0.01 0.02
0.01 0.01 0.01 0.01 0.01 0.02 0.02 0.01 0.01 0.01 0.01 0.01 0.02 0.03 0.04 0.04 0.04 0.04 0.04 0.03 0.03 0.03 0.03 0.04 0.04 0.04 0.04 0.04 0.04 0.04 0.03 0.03 0.03 0.03 0.02 0.02 0.01 0.02 0.02 0.02 0.02 0.02 0.02 0.02 0.02 0.02 0.01 0.01 0.01
0.01 0.01 0.01 0.01 0.01 0.01 0.02 0.01 0.01 0.01 0.01 0.01 0.02 0.02 0.05 0.06 0.04 0.04 0.04 0.04 0.03 0.04 0.04 0.04 0.04 0.04 0.06 0.05 0.03 0.03 0.03 0.02 0.02 0.02 0.02 0.02 0.02 0.02 0.02 0.02 0.02 0.02 0.02 0.02 0.02 0.02 0.01 0.01 0.01
0.02 0.01 0.01 0.01 0.01 0.01 0.02 0.02 0.01 0.01 0.01 0.01 0.01 0.01 0.03 0.05 0.05 0.04 0.04 0.04 0.03 0.03 0.03 0.04 0.04 0.05 0.06 0.05 0.03 0.03 0.03 0.03 0.02 0.02 0.02 0.02 0.02 0.02 0.02 0.02 0.02 0.02 0.02 0.02 0.02 0.02 0.01 0.01 0.01
0.01 0.01 0.01 0.02 0.02 0.02 0.02 0.01 0.02 0.02 0.01 0.01 0.01 0.02 0.02 0.04 0.06 0.05 0.04 0.03 0.03 0.03 0.03 0.03 0.04 0.05 0.06 0.06 0.04 0.03 0.04 0.04 0.03 0.02 0.02 0.02 0.02 0.02 0.02 0.02 0.02 0.02 0.02 0.02 0.02 0.02 0.02 0.02 0.02
0.01 0.02 0.02 0.02 0.03 0.02 0.02 0.02 0.01 0.02 0.01 0.01 0.01 0.01 0.02 0.03 0.05 0.06 0.05 0.04 0.04 0.03 0.03 0.02 0.02 0.04 0.05 0.06 0.05 0.05 0.05 0.05 0.04 0.03 0.02 0.02 0.02 0.02 0.02 0.03 0.03 0.03 0.03 0.03 0.03 0.02 0.02 0.01 0.01
0.02 0.02 0.03 0.03 0.03 0.02 0.01 0.01 0.01 0.01 0.01 0.01 0.01 0.01 0.02 0.02 0.03 0.06 0.06 0.05 0.04 0.04 0.04 0.03 0.02 0.02 0.03 0.05 0.07 0.07 0.07 0.07 0.06 0.05 0.03 0.02 0.02 0.02 0.02 0.02 0.03 0.03 0.03 0.03 0.03 0.04 0.03 0.02 0.02
0.02 0.03 0.03 0.03 0.03 0.02 0.01 0.01 0.00 0.00 0.00 0.01 0.01 0.01 0.02 0.02 0.02 0.04 0.05 0.05 0.04 0.04 0.04 0.03 0.02 0.02 0.02 0.03 0.05 0.07 0.07 0.07 0.07 0.06 0.05 0.05 0.04 0.04 0.03 0.02 0.02 0.02 0.02 0.02 0.02 0.02 0.03 0.03 0.02
0.02 0.02 0.01 0.01 0.02 0.02 0.01 0.00 0.00 0.00 0.00 0.00 0.01 0.01 0.02 0.02 0.03 0.04 0.06 0.07 0.07 0.04 0.03 0.04 0.04 0.03 0.02 0.02 0.03 0.05 0.06 0.07 0.07 0.06 0.05 0.04 0.05 0.05 0.05 0.04 0.02 0.01 0.01 0.01 0.01 0.01 0.02 0.01 0.02
0.02 0.02 0.01 0.01 0.01 0.01 0.01 0.01 0.00 0.00 0.00 0.00 0.01 0.01 0.02 0.02 0.03 0.05 0.07 0.08 0.09 0.07 0.04 0.03 0.03 0.03 0.02 0.02 0.03 0.04 0.04 0.05 0.05 0.05 0.04 0.03 0.03 0.03 0.04 0.03 0.02 0.02 0.02 0.01 0.01 0.01 0.01 0.01 0.00
0.01 0.01 0.01 0.01 0.00 0.01 0.01 0.01 0.01 0.01 0.00 0.01 0.01 0.01 0.02 0.02 0.03 0.04 0.07 0.09 0.10 0.10 0.06 0.03 0.02 0.02 0.03 0.02 0.02 0.03 0.04 0.04 0.05 0.05 0.04 0.03 0.02 0.02 0.02 0.02 0.02 0.02 0.02 0.02 0.01 0.01 0.01 0.01 0.00
0.01 0.01 0.00 0.00 0.01 0.01 0.01 0.00 0.00 0.01 0.01 0.01 0.00 0.01 0.02 0.02 0.03 0.04 0.06 0.09 0.09 0.11 0.09 0.04 0.02 0.02 0.03 0.03 0.03 0.02 0.03 0.04 0.05 0.05 0.05 0.03 0.02 0.02 0.02 0.02 0.02 0.02 0.02 0.02 0.02 0.01 0.01 0.01 0.01
0.02 0.01 0.01 0.01 0.02 0.02 0.01 0.01 0.01 0.01 0.01 0.01 0.01 0.01 0.02 0.03 0.03 0.05 0.06 0.08 0.08 0.09 0.10 0.07 0.04 0.03 0.03 0.03 0.03 0.02 0.02 0.02 0.03 0.05 0.04 0.04 0.03 0.02 0.02 0.02 0.03 0.02 0.02 0.02 0.02 0.02 0.01 0.01 0.01
0.01 0.01 0.02 0.02 0.02 0.02 0.01 0.01 0.01 0.01 0.01 0.01 0.01 0.01 0.01 0.02 0.02 0.03 0.05 0.07 0.08 0.07 0.09 0.10 0.07 0.04 0.03 0.03 0.03 0.03 0.03 0.02 0.02 0.03 0.04 0.04 0.03 0.03 0.03 0.03 0.03 0.04 0.03 0.02 0.02 0.02 0.02 0.02 0.02
0.01 0.02 0.02 0.03 0.04 0.03 0.01 0.01 0.01 0.01 0.02 0.01 0.01 0.01 0.01 0.01 0.02 0.02 0.04 0.06 0.07 0.07 0.07 0.09 0.10 0.07 0.05 0.03 0.02 0.03 0.03 0.03 0.03 0.03 0.04 0.05 0.05 0.04 0.03 0.03 0.03 0.04 0.04 0.03 0.02 0.02 0.02 0.02 0.02
0.01 0.02 0.03 0.03 0.04 0.02 0.01 0.01 0.01 0.03 0.02 0.01 0.01 0.01 0.00 0.00 0.01 0.01 0.02 0.04 0.06 0.07 0.06 0.06 0.08 0.10 0.08 0.05 0.03 0.02 0.02 0.03 0.04 0.04 0.04 0.05 0.05 0.04 0.04 0.04 0.03 0.03 0.03 0.02 0.01 0.01 0.01 0.01 0.01
0.01 0.02 0.03 0.02 0.02 0.01 0.01 0.01 0.02 0.04 0.02 0.01 0.01 0.00 0.00 0.00 0.00 0.01 0.01 0.03 0.05 0.06 0.05 0.05 0.06 0.08 0.09 0.07 0.05 0.03 0.02 0.03 0.05 0.05 0.05 0.05 0.05 0.05 0.05 0.05 0.04 0.03 0.02 0.01 0.01 0.01 0.01 0.01 0.01
0.01 0.02 0.02 0.03 0.02 0.02 0.02 0.02 0.04 0.04 0.02 0.01 0.01 0.01 0.00 0.00 0.00 0.01 0.01 0.02 0.04 0.05 0.06 0.05 0.06 0.07 0.08 0.08 0.07 0.06 0.05 0.04 0.05 0.06 0.06 0.06 0.06 0.05 0.04 0.03 0.02 0.02 0.02 0.01 0.01 0.01 0.01 0.01 0.01
0.01 0.01 0.02 0.03 0.02 0.02 0.01 0.02 0.04 0.03 0.02 0.01 0.01 0.01 0.01 0.00 0.01 0.01 0.01 0.02 0.03 0.05 0.07 0.07 0.07 0.08 0.08 0.08 0.08 0.08 0.07 0.06 0.05 0.05 0.05 0.05 0.05 0.04 0.03 0.02 0.01 0.01 0.01 0.01 0.01 0.01 0.01 0.01 0.01
0.00 0.01 0.01 0.02 0.02 0.02 0.02 0.03 0.04 0.03 0.02 0.01 0.01 0.01 0.01 0.01 0.01 0.01 0.02 0.02 0.04 0.04 0.07 0.08 0.08 0.09 0.09 0.09 0.10 0.09 0.08 0.07 0.06 0.05 0.04 0.04 0.03 0.03 0.03 0.02 0.01 0.01 0.01 0.01 0.01 0.01 0.01 0.01 0.02
0.00 0.01 0.01 0.01 0.01 0.01 0.02 0.04 0.03 0.03 0.03 0.03 0.01 0.01 0.01 0.01 0.01 0.01 0.02 0.03 0.05 0.04 0.05 0.08 0.09 0.09 0.09 0.09 0.09 0.08 0.07 0.06 0.04 0.04 0.03 0.03 0.03 0.03 0.02 0.02 0.02 0.01 0.01 0.01 0.01 0.01 0.02 0.01 0.01
MSLP
1013.78 1013.76 1014.07 1014.68 1015.49 1016.36 1017.14 1017.73 1018.03 1018.05 1017.84 1017.51 1017.15 1016.85 1016.64 1016.51 1016.41 1016.26 1016.01 1015.62 1015.10 1014.52 1013.96 1013.51 1013.23 1013.14 1013.22 1013.43 1013.68 1013.91 1014.09 1014.19 1014.25 1014.28 1014.34 1014.46 1014.63 1014.84 1015.06 1015.25 1015.40 1015.48 1015.52 1015.54 1015.56 1015.61 1015.69 1015.78 1015.87
1013.79 1013.88 1014.34 1015.11 1016.07 1017.07 1017.96 1018.60 1018.92 1018.92 1018.68 1018.31 1017.90 1017.56 1017.33 1017.18 1017.05 1016.87 1016.58 1016.12 1015.54 1014.87 1014.22 1013.67 1013.31 1013.15 1013.19 1013.38 1013.63 1013.89 1014.09 1014.23 1014.31 1014.37 1014.45 1014.56 1014.72 1014.91 1015.11 1015.29 1015.42 1015.50 1015.55 1015.59 1015.64 1015.72 1015.84 1015.97 1016.08
1013.90 1014.14 1014.74 1015.66 1016.75 1017.85 1018.80 1019.47 1019.80 1019.79 1019.52 1019.11 1018.67 1018.30 1018.03 1017.84 1017.68 1017.46 1017.11 1016.60 1015.94 1015.20 1014.47 1013.84 1013.40 1013.18 1013.16 1013.31 1013.54 1013.80 1014.02 1014.18 1014.30 1014.39 1014.49 1014.62 1014.78 1014.97 1015.16 1015.31 1015.43 1015.50 1015.55 1015.60 1015.68 1015.80 1015.95 1016.12 1016.26
1014.20 1014.59 1015.35 1016.38 1017.56 1018.72 1019.69 1020.36 1020.67 1020.63 1020.33 1019.89 1019.43 1019.03 1018.72 1018.49 1018.29 1018.01 1017.60 1017.04 1016.32 1015.52 1014.72 1014.03 1013.53 1013.24 1013.16 1013.25 1013.44 1013.67 1013.88 1014.05 1014.19 1014.31 1014.44 1014.61 1014.80 1015.00 1015.19 1015.34 1015.44 1015.50 1015.54 1015.60 1015.69 1015.84 1016.03 1016.24 1016.40
1014.72 1015.28 1016.17 1017.30 1018.52 1019.68 1020.63 1021.25 1021.52 1021.44 1021.12 1020.66 1020.17 1019.74 1019.40 1019.13 1018.86 1018.53 1018.06 1017.44 1016.67 1015.83 1015.00 1014.26 1013.71 1013.36 1013.22 1013.23 1013.36 1013.53 1013.70 1013.85 1013.99 1014.14 1014.31 1014.51 1014.74 1014.98 1015.19 1015.34 1015.45 1015.51 1015.54 1015.60 1015.71 1015.88 1016.09 1016.33 1016.52
1015.51 1016.24 1017.24 1018.41 1019.63 1020.73 1021.61 1022.15 1022.35 1022.23 1021.87 1021.40 1020.90 1020.45 1020.07 1019.74 1019.41 1019.01 1018.48 1017.81 1017.01 1016.14 1015.29 1014.54 1013.96 1013.56 1013.35 1013.28 1013.32 1013.40 1013.51 1013.62 1013.74 1013.89 1014.09 1014.34 1014.62 1014.90 1015.15 1015.34 1015.46 1015.53 1015.57 1015.63 1015.74 1015.92 1016.15 1016.40 1016.63
1016.55 1017.41 1018.49 1019.66 1020.82 1021.83 1022.58 1023.02 1023.14 1022.96 1022.58 1022.10 1021.59 1021.13 1020.71 1020.33 1019.94 1019.46 1018.87 1018.16 1017.34 1016.47 1015.63 1014.88 1014.28 1013.85 1013.57 1013.42 1013.36 1013.34 1013.35 1013.38 1013.46 1013.60 1013.81 1014.09 1014.42 1014.75 1015.06 1015.30 1015.46 1015.55 1015.62 1015.69 1015.80 1015.98 1016.21 1016.47 1016.71
1017.76 1018.73 1019.83 1020.96 1022.01 1022.88 1023.49 1023.81 1023.83 1023.61 1023.22 1022.74 1022.24 1021.77 1021.33 1020.90 1020.44 1019.90 1019.25 1018.50 1017.67 1016.81 1015.99 1015.26 1014.67 1014.21 1013.88 1013.65 1013.47 1013.34 1013.23 1013.17 1013.17 1013.27 1013.47 1013.77 1014.14 1014.53 1014.90 1015.21 1015.43 1015.57 1015.67 1015.76 1015.88 1016.05 1016.28 1016.54 1016.78
1019.05 1020.08 1021.16 1022.20 1023.11 1023.81 1024.27 1024.46 1024.40 1024.14 1023.75 1023.29 1022.82 1022.36 1021.90 1021.44 1020.92 1020.32 1019.63 1018.85 1018.02 1017.19 1016.40 1015.70 1015.11 1014.64 1014.26 1013.94 1013.65 1013.39 1013.15 1012.97 1012.88 1012.91 1013.08 1013.38 1013.77 1014.22 1014.66 1015.04 1015.34 1015.55 1015.70 1015.82 1015.96 1016.13 1016.36 1016.60 1016.85
1020.30 1021.33 1022.34 1023.26 1024.01 1024.55 1024.85 1024.92 1024.80 1024.52 1024.15 1023.73 1023.30 1022.86 1022.41 1021.92 1021.37 1020.73 1020.00 1019.21 1018.39 1017.58 1016.83 1016.16 1015.59 1015.09 1014.66 1014.25 1013.85 1013.45 1013.08 1012.77 1012.57 1012.51 1012.63 1012.90 1013.32 1013.80 1014.31 1014.78 1015.17 1015.47 1015.69 1015.87 1016.04 1016.23 1016.44 1016.68 1016.92
1021.42 1022.40 1023.30 1024.07 1024.66 1025.03 1025.20 1025.18 1025.02 1024.74 1024.41 1024.04 1023.67 1023.27 1022.83 1022.34 1021.77 1021.11 1020.37 1019.57 1018.77 1017.98 1017.26 1016.61 1016.04 1015.52 1015.03 1014.53 1014.01 1013.48 1012.97 1012.52 1012.20 1012.05 1012.10 1012.34 1012.75 1013.28 1013.85 1014.40 1014.89 1015.30 1015.62 1015.88 1016.10 1016.31 1016.53 1016.77 1017.00
1022.35 1023.23 1024.01 1024.62 1025.05 1025.28 1025.33 1025.25 1025.06 1024.80 1024.52 1024.22 1023.90 1023.55 1023.15 1022.67 1022.10 1021.43 1020.70 1019.92 1019.13 1018.37 1017.67 1017.03 1016.44 1015.88 1015.31 1014.71 1014.07 1013.41 1012.77 1012.20 1011.76 1011.52 1011.50 1011.70 1012.10 1012.65 1013.28 1013.92 1014.52 1015.04 1015.47 1015.82 1016.12 1016.38 1016.63 1016.87 1017.10
1023.07 1023.85 1024.48 1024.95 1025.23 1025.34 1025.31 1025.17 1024.97 1024.74 1024.51 1024.26 1024.00 1023.70 1023.34 1022.88 1022.33 1021.69 1020.97 1020.21 1019.45 1018.71 1018.01 1017.35 1016.72 1016.10 1015.44 1014.74 1013.99 1013.21 1012.45 1011.77 1011.24 1010.92 1010.83 1011.00 1011.38 1011.95 1012.63 1013.35 1014.05 1014.69 1015.24 1015.71 1016.10 1016.43 1016.72 1016.98 1017.23
1023.64 1024.29 1024.80 1025.13 1025.29 1025.31 1025.20 1025.03 1024.83 1024.62 1024.41 1024.21 1023.99 1023.73 1023.40 1022.98 1022.45 1021.84 1021.16 1020.43 1019.69 1018.95 1018.24 1017.55 1016.86 1016.15 1015.39 1014.59 1013.73 1012.86 1012.01 1011.25 1010.66 1010.27 1010.15 1010.28 1010.66 1011.24 1011.96 1012.74 1013.54 1014.28 1014.96 1015.53 1016.03 1016.44 1016.79 1017.10 1017.38
1024.14 1024.68 1025.07 1025.29 1025.35 1025.28 1025.12 1024.91 1024.69 1024.48 1024.28 1024.10 1023.90 1023.65 1023.35 1022.96 1022.47 1021.90 1021.25 1020.55 1019.83 1019.09 1018.35 1017.59 1016.83 1016.02 1015.17 1014.27 1013.33 1012.38 1011.48 1010.68 1010.06 1009.66 1009.51 1009.63 1010.00 1010.59 1011.33 1012.17 1013.03 1013.87 1014.64 1015.33 1015.92 1016.43 1016.86 1017.22 1017.54
1024.66 1025.10 1025.39 1025.51 1025.48 1025.33 1025.11 1024.86 1024.61 1024.37 1024.16 1023.96 1023.75 1023.51 1023.22 1022.85 1022.40 1021.87 1021.26 1020.58 1019.86 1019.11 1018.32 1017.50 1016.64 1015.74 1014.80 1013.82 1012.82 1011.84 1010.93 1010.14 1009.53 1009.14 1009.00 1009.13 1009.50 1010.09 1010.84 1011.71 1012.61 1013.51 1014.36 1015.14 1015.82 1016.41 1016.91 1017.33 1017.69
1025.28 1025.63 1025.81 1025.84 1025.72 1025.50 1025.21 1024.90 1024.60 1024.32 1024.06 1023.83 1023.60 1023.35 1023.06 1022.71 1022.28 1021.78 1021.20 1020.55 1019.82 1019.04 1018.20 1017.30 1016.35 1015.36 1014.34 1013.31 1012.29 1011.31 1010.43 1009.69 1009.13 1008.79 1008.69 1008.84 1009.23 1009.81 1010.57 1011.43 1012.35 1013.28 1014.17 1015.01 1015.75 1016.41 1016.97 1017.45 1017.85
1026.02 1026.26 1026.35 1026.28 1026.07 1025.76 1025.40 1025.02 1024.65 1024.31 1024.00 1023.72 1023.46 1023.20 1022.91 1022.57 1022.18 1021.70 1021.14 1020.49 1019.75 1018.93 1018.02 1017.05 1016.02 1014.96 1013.88 1012.82 1011.81 1010.88 1010.07 1009.41 1008.94 1008.69 1008.65 1008.84 1009.24 1009.82 1010.56 1011.40 1012.31 1013.23 1014.14 1015.00 1015.78 1016.48 1017.08 1017.60 1018.03
1026.85 1026.98 1026.95 1026.77 1026.46 1026.06 1025.62 1025.16 1024.72 1024.33 1023.97 1023.66 1023.38 1023.11 1022.83 1022.51 1022.14 1021.69 1021.14 1020.48 1019.71 1018.84 1017.87 1016.82 1015.72 1014.60 1013.50 1012.45 1011.48 1010.62 1009.91 1009.36 1009.01 1008.85 1008.90 1009.14 1009.56 1010.14 1010.85 1011.66 1012.53 1013.43 1014.31 1015.16 1015.95 1016.65 1017.28 1017.81 1018.25
1027.71 1027.71 1027.55 1027.24 1026.82 1026.33 1025.80 1025.28 1024.79 1024.35 1023.97 1023.65 1023.37 1023.11 1022.85 1022.57 1022.23 1021.79 1021.25 1020.58 1019.77 1018.85 1017.81 1016.70 1015.54 1014.39 1013.28 1012.26 1011.35 1010.59 1010.00 1009.58 1009.35 1009.31 1009.44 1009.73 1010.18 1010.76 1011.45 1012.22 1013.04 1013.88 1014.72 1015.53 1016.29 1016.99 1017.60 1018.12 1018.56
1028.53 1028.38 1028.07 1027.63 1027.10 1026.52 1025.93 1025.36 1024.84 1024.39 1024.01 1023.70 1023.45 1023.23 1023.02 1022.78 1022.47 1022.06 1021.52 1020.83 1019.99 1019.01 1017.92 1016.76 1015.57 1014.40 1013.31 1012.33 1011.50 1010.84 1010.37 1010.08 1009.97 1010.03 1010.24 1010.59 1011.07 1011.64 1012.31 1013.03 1013.80 1014.59 1015.37 1016.13 1016.84 1017.49 1018.06 1018.56 1018.97
1029.23 1028.92 1028.46 1027.91 1027.29 1026.64 1026.00 1025.41 1024.88 1024.45 1024.10 1023.84 1023.65 1023.49 1023.34 1023.15 1022.89 1022.50 1021.97 1021.27 1020.41 1019.39 1018.26 1017.06 1015.85 1014.69 1013.63 1012.70 1011.95 1011.39 1011.02 1010.84 1010.84 1010.98 1011.27 1011.66 1012.16 1012.73 1013.38 1014.06 1014.78 1015.50 1016.22 1016.91 1017.55 1018.15 1018.67 1019.12 1019.49
1029.79 1029.34 1028.76 1028.11 1027.43 1026.74 1026.08 1025.49 1024.99 1024.59 1024.29 1024.09 1023.96 1023.88 1023.80 1023.67 1023.46 1023.11 1022.59 1021.90 1021.02 1019.99 1018.84 1017.64 1016.43 1015.29 1014.26 1013.40 1012.72 1012.24 1011.96 1011.86 1011.93 1012.14 1012.46 1012.89 1013.39 1013.96 1014.58 1015.23 1015.89 1016.55 1017.20 1017.81 1018.39 1018.91 1019.38 1019.78 1020.10
1030.25 1029.69 1029.04 1028.34 1027.62 1026.92 1026.27 1025.70 1025.22 1024.86 1024.61 1024.46 1024.39 1024.37 1024.35 1024.29 1024.14 1023.83 1023.35 1022.68 1021.82 1020.80 1019.67 1018.48 1017.30 1016.20 1015.22 1014.41 1013.79 1013.37 1013.15 1013.10 1013.21 1013.45 1013.79 1014.22 1014.72 1015.27 1015.85 1016.45 1017.06 1017.66 1018.23 1018.77 1019.26 1019.71 1020.12 1020.46 1020.75
1030.68 1030.06 1029.39 1028.68 1027.98 1027.30 1026.67 1026.11 1025.65 1025.30 1025.07 1024.94 1024.91 1024.93 1024.96 1024.96 1024.85 1024.60 1024.18 1023.56 1022.75 1021.78 1020.70 1019.56 1018.44 1017.39 1016.47 1015.72 1015.14 1014.77 1014.57 1014.54 1014.66 1014.89 1015.22 1015.63 1016.10 1016.61 1017.14 1017.68 1018.22 1018.73 1019.22 1019.68 1020.09 1020.47 1020.81 1021.11 1021.37
1031.15 1030.55 1029.91 1029.25 1028.58 1027.93 1027.32 1026.76 1026.29 1025.92 1025.66 1025.52 1025.47 1025.50 1025.55 1025.59 1025.54 1025.36 1025.01 1024.47 1023.75 1022.87 1021.88 1020.83 1019.78 1018.81 1017.95 1017.25 1016.72 1016.36 1016.18 1016.14 1016.24 1016.44 1016.73 1017.09 1017.50 1017.94 1018.40 1018.86 1019.30 1019.73 1020.12 1020.48 1020.81 1021.12 1021.40 1021.67 1021.91
1031.75 1031.22 1030.66 1030.06 1029.45 1028.83 1028.22 1027.63 1027.11 1026.67 1026.33 1026.12 1026.02 1026.01 1026.06 1026.11 1026.12 1026.01 1025.76 1025.34 1024.74 1023.99 1023.12 1022.18 1021.25 1020.36 1019.58 1018.93 1018.43 1018.09 1017.90 1017.84 1017.90 1018.06 1018.29 1018.57 1018.90 1019.25 1019.61 1019.96 1020.30 1020.61 1020.90 1021.16 1021.40 1021.63 1021.87 1022.11 1022.35
1032.50 1032.07 1031.60 1031.09 1030.52 1029.92 1029.28 1028.63 1028.01 1027.45 1026.99 1026.67 1026.47 1026.40 1026.42 1026.48 1026.54 1026.52 1026.39 1026.10 1025.65 1025.05 1024.33 1023.54 1022.72 1021.94 1021.24 1020.65 1020.18 1019.85 1019.65 1019.57 1019.59 1019.68 1019.84 1020.05 1020.28 1020.52 1020.76 1021.00 1021.21 1021.39 1021.56 1021.71 1021.86 1022.02 1022.21 1022.44 1022.69
1033.34 1033.01 1032.63 1032.18 1031.65 1031.03 1030.34 1029.59 1028.84 1028.14 1027.54 1027.07 1026.76 1026.60 1026.59 1026.66 1026.77 1026.84 1026.83 1026.69 1026.41 1025.98 1025.42 1024.77 1024.09 1023.41 1022.79 1022.26 1021.83 1021.52 1021.32 1021.22 1021.21 1021.25 1021.35 1021.47 1021.61 1021.74 1021.86 1021.96 1022.04 1022.10 1022.14 1022.19 1022.25 1022.35 1022.50 1022.72 1022.98
1034.17 1033.92 1033.59 1033.17 1032.63 1031.97 1031.20 1030.35 1029.47 1028.62 1027.87 1027.27 1026.85 1026.62 1026.56 1026.65 1026.80 1026.97 1027.08 1027.09 1026.96 1026.69 1026.29 1025.79 1025.24 1024.67 1024.13 1023.66 1023.28 1023.00 1022.81 1022.71 1022.67 1022.69 1022.74 1022.79 1022.85 1022.89 1022.90 1022.89 1022.85 1022.78 1022.72 1022.67 1022.66 1022.71 1022.83 1023.03 1023.29
Thickness
5682 5687 5691 5691 5684 5677 5672 5672 5674 5672 5672 5671 5673 5675 5675 5671 5668 5661 5656 5659 5660 5661 5661 5661 5662 5663 5663 5663 5663 5663 5663 5663 5662 5662 5662 5662 5662 5662 5662 5662 5662 5662 5662 5662 5662 5662 5661 5661 5661
5679 5684 5686 5683 5675 5668 5666 5669 5666 5667 5666 5665 5665 5667 5665 5659 5655 5652 5652 5653 5655 5656 5656 5657 5657 5658 5658 5658 5658 5658 5658 5658 5658 5658 5657 5657 5657 5657 5657 5657 5657 5657 5657 5657 5657 5657 5656 5656 5656
5676 5679 5677 5674 5667 5667 5663 5661 5661 5658 5660 5661 5657 5656 5655 5650 5647 5646 5646 5648 5650 5651 5651 5651 5652 5653 5653 5653 5653 5653 5653 5653 5653 5653 5652 5652 5652 5652 5652 5652 5652 5652 5652 5652 5652 5651 5651 5650 5650
5672 5672 5668 5663 5655 5654 5657 5656 5655 5652 5652 5653 5653 5648 5643 5639 5640 5641 5641 5643 5645 5645 5645 5645 5646 5646 5647 5647 5648 5648 5648 5648 5648 5647 5647 5646 5646 5646 5646 5646 5646 5646 5647 5646 5646 5646 5645 5645 5644
5667 5663 5654 5648 5645 5644 5646 5648 5649 5649 5648 5646 5648 5643 5637 5633 5635 5636 5636 5638 5639 5640 5639 5639 5639 5640 5641 5641 5642 5642 5642 5642 5642 5641 5641 5641 5640 5640 5640 5640 5640 5640 5641 5640 5640 5640 5639 5639 5638
5656 5655 5646 5642 5639 5637 5637 5638 5642 5642 5639 5638 5640 5638 5630 5628 5629 5629 5630 5631 5632 5632 5633 5632 5633 5633 5634 5634 5635 5635 5636 5635 5635 5634 5634 5634 5633 5633 5632 5633 5633 5633 5634 5634 5634 5633 5633 5632 5632
5646 5643 5639 5638 5634 5630 5628 5630 5632 5633 5632 5630 5632 5632 5625 5622 5622 5623 5623 5624 5625 5625 5626 5626 5626 5626 5627 5628 5628 5628 5628 5628 5628 5627 5627 5626 5626 5625 5625 5625 5626 5626 5626 5626 5626 5626 5626 5625 5624
5639 5636 5628 5629 5629 5625 5621 5621 5622 5624 5623 5621 5623 5624 5620 5617 5616 5616 5617 5617 5618 5618 5619 5619 5619 5620 5620 5621 5621 5620 5621 5620 5620 5620 5619 5619 5619 5618 5617 5617 5618 5618 5619 5618 5618 5618 5617 5617 5617
5630 5626 5621 5620 5621 5618 5614 5614 5611 5611 5613 5611 5611 5613 5612 5610 5610 5610 5610 5611 5611 5611 5611 5612 5613 5613 5613 5614 5614 5613 5613 5613 5613 5612 5612 5612 5612 5611 5611 5610 5610 5610 5610 5610 5610 5610 5609 5609 5608
5619 5615 5610 5607 5610 5609 5605 5607 5604 5606 5607 5605 5604 5602 5603 5604 5605 5605 5605 5605 5605 5604 5604 5605 5606 5606 5606 5606 5606 5606 5605 5605 5605 5604 5604 5604 5604 5603 5603 5602 5602 5602 5602 5602 5601 5601 5601 5601 5601
5603 5600 5594 5594 5596 5598 5597 5596 5597 5602 5602 5601 5600 5598 5597 5598 5599 5600 5599 5598 5598 5598 5598 5598 5598 5598 5599 5599 5598 5598 5597 5597 5597 5597 5597 5596 5596 5596 5595 5595 5594 5594 5594 5594 5593 5593 5593 5592 5591
5589 5583 5584 5583 5583 5586 5588 5588 5589 5592 5594 5593 5594 5593 5592 5592 5593 5594 5593 5592 5591 5591 5591 5591 5591 5591 5591 5591 5590 5590 5589 5589 5589 5589 5588 5589 5588 5588 5587 5586 5586 5585 5585 5584 5584 5583 5583 5582 5581
5579 5572 5571 5571 5572 5575 5577 5580 5581 5581 5582 5583 5585 5585 5586 5587 5587 5586 5587 5586 5586 5585 5585 5584 5584 5584 5583 5583 5583 5582 5582 5581 5581 5581 5580 5580 5580 5579 5578 5577 5577 5576 5575 5575 5574 5574 5573 5572 5571
5568 5566 5564 5564 5566 5567 5569 5571 5573 5575 5574 5576 5578 5579 5580 5580 5581 5580 5580 5581 5580 5580 5579 5578 5577 5577 5576 5576 5575 5575 5574 5573 5573 5573 5572 5571 5571 5570 5569 5568 5567 5566 5566 5565 5564 5564 5563 5562 5561
5563 5563 5561 5558 5559 5560 5564 5567 5567 5568 5568 5570 5572 5573 5573 5573 5574 5575 5575 5575 5575 5574 5573 5571 5570 5570 5569 5568 5568 5566 5565 5565 5565 5564 5563 5563 5562 5561 5560 5559 5558 5557 5556 5555 5555 5554 5553 5552 5551
5563 5564 5563 5554 5553 5554 5560 5568 5563 5560 5561 5565 5567 5568 5568 5568 5568 5569 5570 5569 5569 5568 5566 5565 5563 5563 5562 5561 5560 5559 5557 5557 5556 5555 5554 5554 5553 5552 5551 5550 5549 5547 5546 5546 5546 5544 5544 5542 5541
5564 5563 5560 5553 5548 5549 5555 5561 5556 5553 5556 5560 5563 5563 5563 5564 5564 5564 5564 5564 5563 5562 5560 5558 5557 5556 5554 5553 5552 5551 5549 5548 5547 5546 5545 5545 5544 5543 5543 5541 5540 5538 5537 5536 5535 5534 5533 5532 5530
5562 5560 5555 5552 5546 5545 5549 5553 5554 5551 5552 5557 5559 5560 5560 5560 5561 5560 5559 5558 5557 5555 5554 5552 5550 5549 5547 5545 5545 5543 5541 5540 5539 5538 5536 5536 5535 5534 5533 5532 5530 5529 5528 5526 5525 5524 5522 5521 5519
5556 5553 5551 5547 5540 5541 5546 5549 5553 5552 5550 5554 5556 5557 5557 5557 5556 5554 5553 5552 5551 5550 5548 5546 5545 5543 5541 5540 5539 5538 5536 5534 5532 5530 5528 5528 5527 5525 5524 5522 5521 5520 5518 5516 5515 5514 5513 5511 5509
5549 5548 5547 5542 5537 5538 5544 5549 5554 5551 5551 5554 5555 5556 5556 5554 5552 5551 5549 5548 5546 5545 5544 5543 5540 5538 5536 5534 5533 5531 5529 5527 5525 5522 5520 5519 5518 5517 5515 5514 5512 5510 5508 5506 5505 5504 5502 5501 5498
5545 5547 5545 5541 5536 5535 5541 5559 5558 5554 5550 5551 5552 5553 5554 5552 5551 5549 5546 5544 5542 5541 5540 5538 5536 5533 5530 5528 5526 5524 5522 5520 5518 5516 5514 5511 5510 5509 5507 5505 5503 5501 5499 5497 5495 5494 5493 5491 5487
5546 5537 5536 5534 5540 5544 5540 5559 5568 5557 5553 5553 5554 5553 5553 5551 5549 5547 5543 5540 5538 5537 5535 5533 5531 5528 5526 5523 5522 5521 5520 5518 5514 5511 5508 5504 5502 5501 5499 5496 5494 5492 5490 5488 5485 5483 5482 5480 5478
5534 5528 5529 5531 5534 5536 5536 5544 5569 5554 5557 5560 5558 5555 5553 5550 5547 5544 5541 5537 5535 5532 5530 5528 5525 5523 5521 5519 5517 5515 5513 5510 5507 5504 5501 5499 5496 5493 5491 5488 5486 5483 5481 5478 5476 5473 5471 5469 5468
5524 5527 5528 5528 5534 5536 5536 5540 5564 5565 5562 5563 5558 5554 5551 5547 5543 5540 5537 5532 5529 5527 5524 5522 5520 5518 5516 5514 5512 5510 5507 5504 5501 5498 5496 5493 5489 5486 5483 5480 5477 5474 5471 5468 5466 5464 5462 5459 5457
5526 5536 5543 5545 5542 5546 5527 5533 5558 5565 5558 5556 5555 5552 5548 5544 5540 5537 5533 5529 5525 5523 5520 5518 5516 5514 5512 5509 5507 5504 5501 5499 5496 5493 5491 5487 5484 5480 5476 5472 5469 5465 5462 5459 5456 5454 5452 5449 5447
5523 5531 5540 5547 5549 5550 5525 5538 5562 5554 5548 5546 5546 5546 5543 5541 5537 5533 5530 5525 5522 5518 5515 5513 5512 5510 5507 5505 5502 5499 5496 5493 5490 5487 5484 5481 5478 5473 5468 5464 5460 5456 5453 5450 5448 5445 5443 5440 5437
5522 5523 5519 5523 5509 5524 5545 5546 5555 5549 5546 5543 5541 5540 5540 5538 5534 5530 5525 5522 5518 5514 5511 5509 5508 5506 5503 5500 5498 5495 5491 5488 5485 5481 5477 5474 5470 5466 5461 5457 5453 5449 5445 5442 5439 5437 5434 5431 5428
5512 5513 5514 5521 5531 5543 5549 5550 5561 5556 5553 5547 5541 5539 5538 5535 5530 5526 5521 5517 5513 5510 5508 5505 5503 5502 5499 5495 5493 5490 5487 5483 5479 5475 5471 5467 5464 5459 5454 5451 5447 5443 5439 5436 5432 5429 5426 5422 5419
5505 5506 5509 5513 5516 5536 5545 5562 5560 5555 5550 5546 5543 5539 5536 5532 5527 5522 5517 5513 5509 5506 5504 5501 5499 5497 5494 5491 5488 5484 5481 5477 5473 5469 5466 5461 5457 5452 5448 5445 5441 5437 5433 5429 5425 5422 5418 5414 5410
5500 5507 5509 5521 5514 5512 5530 5554 5551 5544 5541 5537 5536 5533 5530 5526 5522 5517 5513 5509 5506 5503 5500 5497 5495 5493 5490 5486 5483 5479 5476 5471 5467 5463 5460 5455 5451 5447 5443 5439 5435 5431 5427 5422 5419 5415 5411 5407 5403